User: anonymous   Login
Location: Wayah Bald
(35.1806°N, 83.5603°W)
Time: 09:57:43
(UTC-04:00)
Language:

Meteor 1-27 Rocket - Orbit

View from above orbital plane
View from above orbital plane
View from above satellite
View from above satellite

Ground track
Ground track

The orbit data is extracted from the following two-line orbital elements,

1 09904U 77024B   17234.89198237 -.00000004  00000-0 -10049-4 0  9990
2 09904  81.2598  65.3877 0055939 138.9729 221.5669 14.06846974 72181
Epoch (UTC): 22 August 2017 21:24:27
Eccentricity: 0.0055939
inclination: 81.2598°
perigee height: 829 km
apogee height: 911 km
right ascension of ascending node: 65.3877°
argument of perigee: 138.9729°
revolutions per day: 14.06846974
mean anomaly at epoch: 221.5669°
orbit number at epoch: 7218

The dashed part of the orbit path shows where the satellite is in the earth's shadow,  

DLR